Weather History for Hastings, NE

Change the Weather History Date:

Tuesday, October 8, 2013

  Actual Average Record
Temperature  
Mean Temperature 65 °F 56 °F  
Max Temperature 80 °F 68 °F 89 °F (2010)
Min Temperature 50 °F 44 °F 18 °F (2000)
Degree Days  
Heating Degree Days 0 10  
Month to date heating degree days 45 67  
Since 1 July heating degree days 80 163  
Cooling Degree Days 0 1  
Month to date cooling degree days 11 8  
Year to date cooling degree days 1154 1071  
Growing Degree Days 15 (Base 50)    
Moisture  
Dew Point 38 °F    
Average Humidity 40    
Maximum Humidity 59    
Minimum Humidity 21    
Precipitation  
Precipitation 0.00 in 0.08 in 1.99 in (1992)
Month to date precipitation 4.14 0.57  
Year to date precipitation 23.46 23.79  
Snow  
Snow 0.00 in 0.00 in T in (1992)
Month to date snowfall 0.0 0.1  
Since 1 July snowfall 0.0 0.3  
Since 1 September snowfall 0.0 0.3  
Snow Depth 0.00 in    
Sea Level Pressure  
Sea Level Pressure 29.87 in    
Wind  
Wind Speed 14 mph (South)    
Max Wind Speed 25 mph    
Max Gust Speed 35 mph    
Visibility 10 miles    
Events      
T = Trace of Precipitation, MM = Missing Value Source: NWS Daily Summary

Daily Weather History Graph

Daily Weather History Graph

Search for Another Location

Airport:

Trip Planner

Search our weather history database for the weather conditions in past years. The results will help you decide how hot, cold, wet, or windy it might be!

Date:

Astronomy

Oct. 08, 2013 Rise Set
Actual Time 7:37 AM CDT 7:03 PM CDT
Civil Twilight 7:10 AM CDT 7:31 PM CDT
Nautical Twilight 6:38 AM CDT 8:02 PM CDT
Astronomical Twilight 6:06 AM CDT 8:34 PM CDT
Moon 11:34 AM CDT (10/8) 9:40 PM CDT (10/8)
Length of Visible Light 12h 20m
Length of Day
11h 26m
Waxing Crescent, 16% of the Moon is Illuminated
Oct 8
Waxing Crescent
Oct 11
First Quarter
Oct 18
Full
Oct 26
Last Quarter
Nov 3
New

Hourly Weather History & Observations

Time (CDT) Temp. Dew Point Humidity Pressure Visibility Wind Dir Wind Speed Gust Speed Precip Events Conditions
12:53 AM 55.9 °F 37.0 °F 49% 29.95 in 10.0 mi South 6.9 mph - N/A   Clear
1:53 AM 55.0 °F 36.0 °F 49% 29.94 in 10.0 mi South 6.9 mph - N/A   Clear
2:53 AM 54.0 °F 36.0 °F 51% 29.94 in 10.0 mi South 6.9 mph - N/A   Clear
3:53 AM 51.1 °F 37.0 °F 59% 29.92 in 10.0 mi South 9.2 mph - N/A   Clear
4:53 AM 52.0 °F 36.0 °F 54% 29.91 in 10.0 mi South 9.2 mph - N/A   Clear
5:53 AM 51.1 °F 36.0 °F 56% 29.91 in 10.0 mi South 10.4 mph - N/A   Clear
6:53 AM 51.1 °F 36.0 °F 56% 29.91 in 10.0 mi South 11.5 mph - N/A   Clear
7:53 AM 51.1 °F 37.0 °F 59% 29.91 in 10.0 mi South 12.7 mph - N/A   Clear
8:53 AM 54.0 °F 37.9 °F 55% 29.91 in 10.0 mi South 15.0 mph 20.7 mph N/A   Clear
9:53 AM 60.1 °F 37.0 °F 42% 29.91 in 10.0 mi South 16.1 mph 25.3 mph N/A   Clear
10:53 AM 64.9 °F 37.0 °F 36% 29.89 in 10.0 mi South 17.3 mph 28.8 mph N/A   Clear
11:53 AM 70.0 °F 37.0 °F 30% 29.86 in 10.0 mi South 18.4 mph 26.5 mph N/A   Clear
12:53 PM 73.9 °F 36.0 °F 25% 29.84 in 10.0 mi South 23.0 mph 34.5 mph N/A   Clear
1:53 PM 77.0 °F 37.0 °F 24% 29.81 in 10.0 mi South 20.7 mph 31.1 mph N/A   Clear
2:53 PM 78.1 °F 36.0 °F 22% 29.80 in 10.0 mi South 17.3 mph 29.9 mph N/A   Clear
3:53 PM 79.0 °F 36.0 °F 21% 29.79 in 10.0 mi South 16.1 mph 28.8 mph N/A   Clear
4:53 PM 77.0 °F 36.0 °F 23% 29.78 in 10.0 mi South 19.6 mph 28.8 mph N/A   Clear
5:53 PM 75.9 °F 37.9 °F 25% 29.78 in 10.0 mi South 19.6 mph 31.1 mph N/A   Clear
6:53 PM 71.1 °F 39.9 °F 32% 29.80 in 10.0 mi SSE 16.1 mph 25.3 mph N/A   Clear
7:53 PM 68.0 °F 39.9 °F 36% 29.82 in 10.0 mi SSE 13.8 mph 23.0 mph N/A   Clear
8:53 PM 66.0 °F 41.0 °F 40% 29.84 in 10.0 mi SSE 11.5 mph - N/A   Clear
9:53 PM 64.9 °F 41.0 °F 42% 29.84 in 10.0 mi SSE 13.8 mph 24.2 mph N/A   Clear
10:53 PM 62.1 °F 42.1 °F 48% 29.85 in 10.0 mi SSE 15.0 mph - N/A   Clear
11:53 PM 61.0 °F 43.0 °F 52% 29.85 in 10.0 mi South 12.7 mph 21.9 mph N/A   Clear